Hourly Data Report for May 28, 2017

FISHER BRANCH (AUT)
MANITOBA

51°05'00.100" N
97°33'16.200" W
253.00 m
50309J6
71442
WSZ

Download Data

Hourly Data (May 2017)
Hourly Data Report for May 28, 2017
TIME
LST
Temp Definition
°C
Dew Point Definition
°C
Rel Hum Definition
%
Precip. Amount Definition
mm

Wind Dir Definition
10's deg

Wind Spd Definition
km/h
Visibility Definition
km
Stn Press Definition
kPa
Hmdx Definition


Wind Chill Definition


Weather Definition


00:00 11.2 9.9 92 0.0 28 11   97.63     LegendNANA
01:00 11.2 10.0 92 0.0 30 9   97.62     LegendNANA
02:00 10.1 9.4 96 0.5 33 10   97.62     LegendNANA
03:00 9.8 9.2 96 0.6 33 9   97.61     LegendNANA
04:00 9.7 9.0 96 0.3 31 12   97.59     LegendNANA
05:00 9.6 8.7 94 0.2 29 11   97.57     LegendNANA
06:00 9.5 8.7 95 0.2 28 11   97.56     LegendNANA
07:00 9.4 8.2 93 0.0 30 18   97.54     LegendNANA
08:00 9.7 8.3 91 0.0 31 12   97.56     LegendNANA
09:00 9.8 8.5 92 0.2 31 13   97.58     LegendNANA
10:00 9.8 8.6 93 0.2 33 12   97.58     LegendNANA
11:00 10.2 9.2 94 0.3 36 13   97.60     LegendNANA
12:00 9.6 8.3 92 0.7 33 14   97.64     LegendNANA
13:00 9.9 8.6 92 0.5 33 18   97.65     LegendNANA
14:00 10.2 7.7 84 0.0 33 20   97.68     LegendNANA
15:00 9.9 8.1 88 0.0 34 19   97.72     LegendNANA
16:00 9.8 7.3 84 0.0 34 20   97.76     LegendNANA
17:00 9.5 7.4 87 0.0 34 20   97.81     LegendNANA
18:00 9.0 6.9 87 0.0 34 23   97.85     LegendNANA
19:00 8.6 6.9 89 0.0 33 24   97.88     LegendNANA
20:00 8.3 6.5 89 0.0 33 20   97.89     LegendNANA
21:00 8.1 6.3 89 0.0 33 23   97.93     LegendNANA
22:00 7.9 5.6 85 0.0 33 19   97.95     LegendNANA
23:00 7.6 5.6 87 0.0 33 17   97.95     LegendNANA

Notes on Data Quality.

Legend

  • E = Estimated
  • M = Missing
  • NA = Not Available*
  • [empty] = Indicates an unobserved value
Date modified: